Location: Bijele Vode
(45.2833°N, 16.2000°E)
Time: 07:29:18
(UTC+00:00)

Lacrosse 5 rocket - Pass Details

Date: 19 January 2021
Orbit: 465 x 630 km, 57.0° (Epoch: 04 March)

Event Time Altitude Azimuth Distance (km) Brightness Sun altitude
Exits shadow 05:22:45 13° 317° (NW) 1,533 3.1 -11.4°
Maximum altitude 05:26:06 60° 37° (NE) 574 1.5 -10.9°
Drops below altitude 10° 05:29:47 10° 118° (ESE) 1,659 5.3 -10.2°
Sets 05:31:54 0° 122° (ESE) 2,517 6.6 -9.9°
